HULIANWANG DIGUI-148

导读 | 豆包AI

HULIANWANG DIGUI-148是由中国于2026年1月19日发射的低轨卫星,归属“互联网”星座体系。低轨互联网卫星星座是中国构建全球卫星互联网的重要布局,该卫星入轨后,将和同星座其他卫星协同,为全球提供高速卫星互联网接入服务,推动天地一体化网络建设,支撑泛在连接的通信需求。

Basic Information
目录编号:
67524
目录名称:
HULIANWANG DIGUI-148
国际标识:
2026-013C
轨道中心:
EARTH
卫星名称:
HULIANWANG DIGUI-148
卫星全名:
HULIANWANG DIGUI-148
卫星状态:
在轨 (已飞行126 天)
发射日期:
2026-01-19 UTC
国别 :
中国 (CN)
星等 :
--
Orbit Information
数据来源 国际轨道数据 AOE轨道数据
星历时间 2026-05-24T10:02:09+0800
1天前
查看轨道信息
2026-05-22T23:00:00+0800
2天前
查看轨道信息
半长轴 7527.431km 7527.447km
偏心率 0.0000894 0.0002054
轨道倾角 50.009° 50.002°
近地点辐角 22.496° 53.883°
升交点赤经 82.197° 87.423°
平近点角 337.596° 155.707°
近地点 1148.621km 1147.763km
远地点 1149.967km 1150.857km
周期 108.325分钟 108.326分钟
每日圈数 13.293294 13.293253
Detailed Information
使用方式:
暂无
2D Orbit Map
3D Orbit Map
Orbit Altitude Analysis Chart
Orbit Inclination Analysis Chart
Orbit Comprehensive Analysis Chart
View Comprehensive Chart